User: anonymous   Login
Location: Unspecified
(0.0000°N, 0.0000°E)
Time: 21:40:29
(UTC+02:00)
Language:

Iridium 33 - Orbit

View from above orbital plane
View from above orbital plane
View from above satellite
View from above satellite

Ground track
Ground track

The orbit data is extracted from the following two-line orbital elements,

1 24946U 97051C   14298.14586902  .00000482  00000-0  16842-3 0  1334
2 24946 086.3868 330.9852 0009715 141.1526 276.1833 14.33209720895652
Epoch (UTC): 25 October 2014 03:30:03
Eccentricity: 0.0009715
inclination: 86.3868°
perigee height: 774 km
apogee height: 788 km
right ascension of ascending node: 330.9852°
argument of perigee: 141.1526°
revolutions per day: 14.33209720
mean anomaly at epoch: 276.1833°
orbit number at epoch: 89565

The dashed part of the orbit path shows where the satellite is in the earth's shadow,  

DLR